This is the latest recevied weather packets stored in our database for station/object KF0FSA. If no packets are shown the sender has not sent any weather packets the latest 10 day(s).
| Time | Temp. | Humidity | Pressure | Rain* | Wind** | Luminosity | Snow |
|---|---|---|---|---|---|---|---|
| 1777984712 | 3.89° C | 66% | 958.1 hPa | 0 mm | - | 90 W/m² | - |
| 1777984410 | 3.89° C | 66% | 958.1 hPa | 0 mm | - | 90 W/m² | - |
| 1777984234 | 3.89° C | 65% | 957.9 hPa | 0 mm | - | 92 W/m² | - |
| 1777983810 | 3.89° C | 66% | 957.9 hPa | 0 mm | - | 96 W/m² | - |
| 1777983509 | 3.33° C | 66% | 957.7 hPa | 0 mm | - | 103 W/m² | - |
| 1777983334 | 3.33° C | 67% | 957.7 hPa | 0 mm | - | 72 W/m² | - |
| 1777982910 | 3.33° C | 67% | 957.6 hPa | 0 mm | - | 57 W/m² | - |
| 1777982610 | 3.33° C | 68% | 957.6 hPa | 0 mm | - | 49 W/m² | - |
| 1777982309 | 3.33° C | 68% | 957.5 hPa | 0 mm | - | 41 W/m² | - |
| 1777982011 | 3.33° C | 68% | 957.4 hPa | 0 mm | - | 35 W/m² | - |
| 1777981710 | 3.33° C | 68% | 957.4 hPa | 0 mm | - | 30 W/m² | - |
| 1777981410 | 2.78° C | 68% | 957.3 hPa | 0 mm | - | 28 W/m² | - |
| 1777981111 | 2.78° C | 68% | 957.4 hPa | 0 mm | - | 22 W/m² | - |
| 1777980934 | 2.78° C | 68% | 957.5 hPa | 0 mm | - | 16 W/m² | - |
| 1777980635 | 2.78° C | 68% | 957.6 hPa | 0 mm | - | 11 W/m² | - |
| 1777980209 | 2.78° C | 68% | 957.4 hPa | 0 mm | - | 8 W/m² | - |
| 1777980035 | 2.78° C | 67% | 957.4 hPa | 0 mm | - | 5 W/m² | - |
| 1777979607 | 2.78° C | 67% | 957.4 hPa | 0 mm | - | 3 W/m² | - |
| 1777979308 | 2.78° C | 66% | 957.3 hPa | 0 mm | - | 0 W/m² | - |
| 1777979008 | 2.78° C | 67% | 957.4 hPa | 0 mm | - | 0 W/m² | - |
| 1777978708 | 2.78° C | 67% | 957.3 hPa | 0 mm | - | 0 W/m² | - |
| 1777978408 | 2.78° C | 66% | 957.3 hPa | 0 mm | - | 0 W/m² | - |
| 1777978108 | 2.78° C | 67% | 957.2 hPa | 0 mm | - | 0 W/m² | - |
| 1777977933 | 2.78° C | 69% | 957.2 hPa | 0 mm | - | 0 W/m² | - |
| 1777977633 | 2.78° C | 69% | 957.2 hPa | 0 mm | - | 0 W/m² | - |
* Rain latest hour (hover to see other rain measurements)
** Current wind speed in m/s (hover to see current wind gust speed)